Wind_Speed
30 37 45 56 65 72 78 81 81 82 81 81 84 85 88 87 95 102 110 113 118 123 126 128 130 129 137 133 132 131 131 128 123 120 117 115 112 101 108 115 117 121 119
27 36 43 50 56 61 64 66 68 69 70 71 72 73 74 75 76 79 78 86 93 107 109 117 122 125 131 134 135 133 132 131 130 125 125 121 123 122 105 108 119 120 121
27 33 36 39 42 47 51 54 58 61 63 63 64 65 66 67 67 68 69 73 76 82 83 100 111 117 120 121 132 130 130 129 131 131 130 130 128 131 136 137 131 128 133
22 26 30 33 36 38 42 46 49 52 53 54 56 58 58 59 60 61 63 65 68 68 80 81 89 89 96 103 106 118 121 124 127 131 131 131 132 133 137 140 140 145 147
19 22 25 27 29 31 32 34 36 39 41 42 45 48 51 52 54 55 57 61 65 67 67 67 80 81 84 90 100 104 108 114 121 125 130 133 136 139 142 143 145 146 147
12 13 16 20 25 28 28 28 30 34 36 39 38 40 41 43 45 49 53 62 64 69 68 68 73 80 79 76 76 91 100 105 115 118 126 132 136 139 139 145 149 151 151
11 15 17 20 24 26 27 30 31 33 35 38 36 38 40 42 40 42 51 54 57 60 64 69 72 76 84 80 84 88 95 98 100 109 111 113 120 125 125 134 140 142 151
8 13 17 20 24 26 28 31 32 34 36 36 34 38 41 42 45 46 47 51 58 61 65 68 75 78 78 75 78 80 84 89 97 100 106 112 117 120 121 124 129 133 140
10 17 20 23 24 26 28 29 30 31 27 32 36 40 42 44 50 53 55 49 52 61 63 66 66 71 74 78 79 83 87 93 98 102 107 109 114 119 123 125 131 136 139
17 16 21 23 24 29 32 29 29 31 27 32 41 45 39 53 49 54 59 60 56 56 62 70 73 76 79 79 83 87 91 96 101 106 109 113 118 123 128 133 138 143 146
13 13 11 7 13 14 18 22 30 31 31 31 36 47 48 48 57 58 63 65 68 68 69 72 71 73 81 85 89 96 102 108 114 119 122 125 128 130 130 128 123 120 119
13 12 7 4 5 6 5 8 10 18 27 33 36 42 49 51 61 67 70 71 76 78 80 82 86 92 96 101 103 106 109 112 115 114 113 110 108 108 108 108 108 107 107
5 2 1 2 4 5 8 10 13 17 20 22 26 29 32 37 47 54 68 72 77 84 89 92 97 98 99 96 93 95 96 96 97 97 97 96 98 101 102 102 105 106 108
8 4 3 5 8 12 15 18 21 23 25 27 30 32 34 37 41 46 50 54 58 61 65 69 71 74 77 79 81 82 83 84 87 90 93 96 98 101 104 104 105 105 107
8 7 6 7 8 10 13 16 19 21 23 26 28 31 34 37 40 43 46 50 53 56 59 63 66 70 73 76 79 82 83 86 88 90 92 95 98 99 101 103 103 102 105
19 17 16 16 16 16 18 19 21 23 27 30 33 35 37 40 42 46 49 52 55 57 60 63 67 72 76 78 81 83 84 87 88 90 92 94 96 97 99 102 102 102 106
24 23 24 24 23 24 25 26 27 30 32 34 37 38 41 44 46 49 51 55 57 60 62 64 68 72 77 80 83 86 87 90 91 92 93 94 95 97 100 101 100 104 104
26 26 30 30 30 32 34 36 36 36 37 39 41 43 46 49 49 51 52 55 58 60 62 65 70 73 75 77 80 85 87 89 91 92 94 95 94 94 94 96 100 99 96
32 35 39 37 37 37 38 38 42 43 42 41 41 43 47 49 50 48 49 52 54 56 59 64 67 70 71 73 76 79 81 83 84 84 86 87 87 90 94 94 94 91 86
41 38 40 43 45 46 48 49 50 47 48 48 50 49 47 48 51 53 54 54 55 59 64 66 69 70 71 72 72 74 75 77 76 76 79 85 89 91 90 89 86 81 80
44 44 49 53 52 54 52 53 56 57 59 58 56 56 53 53 56 57 57 59 59 61 65 68 71 71 72 71 70 70 69 70 74 79 84 87 87 89 87 84 81 79 79
52 56 62 57 54 55 57 62 67 69 68 63 63 63 60 59 60 62 63 63 64 68 71 72 74 73 73 73 71 70 71 75 80 83 83 85 87 86 84 80 77 77 75
61 59 59 58 56 59 62 65 69 72 72 70 69 67 66 63 62 63 63 65 68 72 74 75 75 76 75 75 74 74 76 80 83 82 82 83 84 83 79 76 75 72 69
69 68 68 65 61 63 64 69 73 72 73 75 71 67 66 65 66 67 68 70 71 73 74 74 74 75 75 75 75 76 79 83 84 83 82 81 82 79 75 73 72 68 71
70 69 70 73 71 70 76 79 81 79 78 76 69 68 68 68 69 69 70 72 74 74 75 74 75 74 74 76 76 78 81 83 84 83 80 80 76 75 73 71 67 69 74
75 77 74 70 75 77 79 84 81 82 80 78 72 70 70 71 73 74 74 74 74 73 74 75 75 75 75 76 76 79 82 84 84 82 79 75 73 72 71 68 71 74 76
Wind_Direction
183 187 192 198 202 206 212 217 221 223 225 227 231 235 237 239 240 241 242 242 239 238 240 240 240 243 245 247 248 248 250 251 253 254 255 259 260 264 264 266 267 268 271
175 182 187 194 201 208 214 219 222 224 227 229 232 234 236 238 239 241 242 244 243 241 242 242 243 242 243 246 247 247 249 250 251 251 254 258 258 255 264 262 266 267 271
175 182 190 198 206 213 217 220 221 223 227 230 232 235 236 237 240 240 240 240 241 236 236 241 243 246 246 249 249 248 249 250 250 253 254 256 258 259 261 262 262 263 267
186 196 204 209 214 216 217 218 220 222 226 229 232 235 236 238 239 238 237 236 235 237 237 246 248 246 249 250 251 252 252 252 254 254 256 258 259 260 262 263 264 266 268
196 205 211 212 211 210 208 207 210 214 218 223 229 231 233 234 233 232 232 234 234 234 240 246 247 249 249 253 251 253 254 257 258 258 258 258 260 261 262 265 265 266 266
171 181 187 188 188 188 192 202 209 212 217 220 227 229 231 231 232 231 231 230 232 233 233 241 242 248 252 257 262 257 257 259 257 260 259 259 261 263 267 267 268 270 272
174 179 181 184 189 195 202 209 216 220 220 223 225 224 226 227 226 222 219 225 226 226 234 242 245 250 253 257 257 259 260 262 263 262 264 267 267 267 269 269 272 273 272
132 163 175 188 195 201 207 213 214 215 216 216 218 218 214 209 205 206 213 224 229 231 235 242 245 248 252 256 259 262 264 265 266 268 270 269 269 272 273 273 274 276 276
113 131 140 146 156 169 180 194 200 200 201 202 199 203 207 209 211 215 215 221 233 235 239 242 247 250 253 253 257 258 260 261 263 266 268 270 271 272 274 276 276 278 280
84 83 125 135 152 158 167 173 186 187 199 207 204 204 212 213 219 222 227 232 240 242 247 248 253 252 254 258 261 262 264 264 264 265 268 271 272 274 276 278 280 279 279
55 57 49 71 148 154 179 187 197 201 210 211 213 215 223 225 227 229 233 236 241 245 249 252 259 265 266 265 266 267 267 267 269 272 273 276 277 278 279 281 282 282 282
72 76 66 28 317 319 301 257 251 238 238 241 245 244 242 238 237 235 238 243 246 249 252 256 258 260 263 264 267 270 272 273 276 276 277 279 281 282 282 283 284 286 288
70 62 329 296 276 266 261 265 265 262 259 257 255 255 254 254 251 252 249 252 255 254 254 257 261 262 269 272 273 273 274 276 278 279 281 282 283 286 287 288 289 290 290
28 8 312 279 271 270 268 266 266 266 268 270 271 272 269 268 266 264 264 264 265 265 265 266 268 271 273 274 276 277 277 279 281 282 283 285 286 287 287 288 288 289 290
25 19 7 343 314 299 290 285 281 278 275 273 272 273 273 272 271 272 271 272 273 274 276 276 276 277 277 278 278 280 281 282 283 285 286 287 288 290 291 292 292 292 292
358 351 340 329 321 312 303 295 288 284 282 280 279 279 278 278 278 278 279 281 282 283 282 282 282 281 280 281 283 284 285 286 287 289 290 291 292 293 294 295 295 294 294
343 340 337 330 325 319 314 306 298 293 291 290 289 288 287 286 286 285 284 284 283 284 285 285 286 286 287 287 287 288 289 289 291 291 291 292 294 295 295 296 295 296 297
339 340 339 335 329 325 322 316 308 304 299 297 295 293 292 291 290 290 291 290 289 288 290 290 290 290 290 292 292 290 292 292 293 293 294 295 296 296 296 296 298 298 298
329 329 331 330 329 326 324 324 322 313 307 303 302 303 302 298 295 295 295 294 295 296 297 297 298 297 297 296 296 295 294 294 296 297 297 298 298 299 299 299 299 300 301
329 323 327 328 326 322 324 322 318 315 314 311 308 307 304 301 299 300 299 299 301 301 301 301 301 302 302 301 300 298 298 299 300 301 301 302 302 302 302 302 302 304 302
328 323 321 323 321 319 318 318 320 321 315 309 309 308 304 301 298 298 298 300 302 303 304 304 304 304 305 306 304 303 303 303 303 303 304 305 306 305 305 305 307 304 304
327 333 331 322 316 316 318 318 320 318 315 311 309 308 307 303 299 298 299 301 304 304 304 305 306 306 307 307 305 303 304 303 305 306 308 309 308 306 307 309 307 307 307
333 329 325 321 317 316 316 317 317 316 315 314 310 308 308 305 303 301 301 303 303 303 304 305 306 306 306 305 305 304 304 306 309 310 312 311 308 308 310 308 308 308 305
330 329 328 326 314 312 316 313 314 313 312 313 314 309 306 305 305 305 305 305 304 303 303 303 304 304 305 305 305 305 306 309 311 313 314 311 309 311 309 311 310 309 308
327 323 322 321 319 312 314 315 313 310 310 314 311 309 308 307 306 306 305 304 304 302 303 304 305 305 305 306 306 307 309 311 313 315 313 311 312 310 312 311 308 307 308
321 323 320 315 317 311 310 312 311 312 311 311 311 309 307 306 305 305 305 304 304 304 304 305 306 306 306 307 308 309 311 313 315 314 313 314 312 313 312 311 311 312 313
Height
10202 10213 10227 10242 10258 10273 10288 10305 10321 10335 10350 10362 10373 10383 10390 10400 10411 10421 10431 10440 10447 10456 10461 10464 10467 10475 10466 10480 10484 10486 10488 10490 10490 10491 10493 10490 10488 10481 10476 10473 10466 10464 10455
10212 10223 10235 10249 10263 10276 10290 10304 10318 10331 10342 10353 10362 10370 10378 10387 10397 10406 10415 10416 10427 10439 10441 10435 10442 10453 10454 10455 10459 10461 10462 10469 10467 10466 10468 10467 10462 10453 10452 10444 10445 10437 10431
10226 10235 10246 10257 10268 10278 10290 10301 10311 10323 10334 10344 10353 10361 10369 10377 10382 10391 10397 10402 10410 10415 10406 10416 10426 10428 10430 10438 10437 10439 10441 10441 10441 10442 10440 10438 10435 10431 10427 10424 10418 10412 10404
10239 10246 10254 10262 10270 10279 10288 10298 10308 10318 10327 10335 10343 10350 10357 10363 10369 10375 10380 10385 10391 10400 10401 10401 10405 10408 10409 10413 10410 10414 10416 10417 10416 10416 10417 10414 10410 10404 10399 10394 10393 10388 10379
10244 10250 10256 10264 10271 10279 10287 10296 10304 10312 10320 10327 10333 10340 10345 10351 10356 10361 10367 10373 10377 10384 10385 10385 10387 10390 10394 10391 10394 10393 10393 10390 10392 10396 10393 10387 10383 10379 10372 10369 10365 10358 10351
10249 10254 10259 10265 10272 10280 10287 10295 10302 10309 10315 10321 10326 10332 10337 10341 10346 10352 10356 10361 10365 10370 10372 10372 10374 10376 10378 10377 10375 10374 10373 10371 10371 10367 10364 10361 10355 10352 10348 10338 10337 10332 10327
10253 10257 10263 10268 10275 10282 10289 10295 10300 10304 10309 10314 10319 10323 10328 10333 10337 10342 10348 10352 10355 10358 10360 10360 10363 10364 10363 10361 10359 10355 10353 10352 10349 10346 10345 10342 10334 10328 10321 10312 10308 10302 10295
10257 10261 10265 10270 10276 10282 10286 10291 10296 10300 10305 10311 10314 10318 10322 10326 10331 10334 10339 10342 10343 10345 10347 10347 10348 10348 10348 10345 10342 10340 10337 10333 10329 10327 10321 10315 10309 10305 10298 10287 10277 10270 10264
10266 10268 10271 10275 10279 10282 10286 10290 10295 10299 10302 10306 10311 10315 10318 10321 10325 10327 10329 10331 10332 10334 10335 10334 10334 10331 10329 10327 10325 10323 10319 10314 10309 10305 10298 10291 10282 10274 10267 10257 10247 10244 10240
10280 10280 10280 10282 10284 10286 10290 10292 10296 10298 10301 10304 10308 10310 10312 10315 10317 10319 10321 10321 10322 10322 10322 10321 10318 10316 10312 10311 10309 10306 10300 10294 10288 10282 10274 10265 10255 10244 10239 10234 10227 10216 10204
10290 10290 10292 10293 10293 10294 10296 10297 10300 10301 10303 10305 10308 10309 10309 10311 10313 10313 10313 10311 10311 10310 10308 10306 10304 10301 10297 10293 10288 10283 10278 10272 10266 10258 10250 10239 10228 10221 10213 10203 10193 10183 10174
10296 10297 10298 10299 10299 10299 10301 10302 10302 10304 10305 10306 10307 10307 10306 10305 10304 10303 10303 10302 10300 10296 10292 10288 10284 10280 10276 10271 10267 10264 10258 10249 10243 10232 10220 10210 10201 10190 10181 10172 10161 10152 10141
10298 10299 10300 10300 10300 10300 10300 10300 10299 10300 10300 10299 10299 10298 10296 10295 10295 10293 10291 10287 10284 10280 10278 10274 10270 10266 10262 10256 10247 10239 10231 10224 10215 10205 10194 10183 10173 10163 10153 10144 10130 10123 10112
10301 10301 10300 10299 10299 10298 10297 10297 10296 10294 10293 10291 10290 10289 10287 10285 10283 10280 10277 10274 10270 10266 10261 10255 10251 10245 10237 10230 10223 10215 10207 10198 10189 10180 10169 10159 10149 10138 10126 10118 10107 10096 10085
10301 10300 10299 10298 10296 10295 10293 10292 10290 10287 10285 10282 10279 10277 10274 10271 10267 10263 10259 10255 10251 10246 10242 10236 10229 10222 10214 10206 10198 10190 10182 10173 10164 10155 10146 10135 10122 10112 10098 10084 10075 10066 10054
10300 10298 10296 10294 10292 10289 10287 10284 10281 10279 10276 10273 10270 10266 10262 10258 10253 10249 10244 10239 10233 10227 10222 10215 10208 10199 10190 10181 10172 10162 10153 10145 10137 10129 10118 10107 10096 10084 10071 10055 10044 10034 10023
10298 10296 10294 10291 10288 10285 10281 10278 10275 10272 10268 10264 10259 10255 10250 10245 10239 10234 10227 10221 10215 10208 10202 10195 10187 10178 10167 10157 10148 10138 10128 10117 10110 10101 10091 10079 10069 10058 10044 10030 10017 10004 9992
10297 10294 10291 10287 10283 10279 10276 10272 10268 10263 10258 10253 10247 10242 10237 10230 10224 10218 10211 10202 10195 10190 10183 10174 10165 10156 10148 10137 10125 10114 10105 10094 10086 10077 10066 10054 10044 10033 10018 10005 9990 9976 9963
10294 10290 10286 10282 10278 10273 10268 10262 10257 10251 10246 10240 10234 10229 10222 10214 10206 10201 10195 10187 10178 10170 10163 10153 10144 10134 10125 10116 10104 10092 10082 10072 10062 10053 10042 10030 10018 10006 9992 9978 9963 9948 9936
10289 10285 10281 10277 10272 10266 10260 10254 10248 10242 10234 10227 10220 10214 10208 10198 10190 10183 10176 10169 10161 10152 10142 10134 10124 10114 10105 10095 10084 10072 10061 10051 10042 10031 10019 10007 9992 9977 9963 9950 9936 9925 9908
10280 10276 10272 10266 10261 10255 10249 10242 10236 10229 10222 10214 10206 10200 10194 10186 10175 10167 10159 10150 10143 10134 10123 10114 10104 10093 10082 10072 10061 10051 10041 10030 10021 10011 9997 9983 9966 9949 9935 9923 9911 9897 9884
10272 10267 10261 10255 10248 10241 10235 10229 10222 10213 10206 10198 10189 10182 10176 10170 10161 10151 10142 10132 10123 10113 10103 10094 10083 10071 10061 10051 10041 10032 10022 10011 10000 9988 9975 9958 9940 9923 9912 9900 9885 9872 9859
10260 10255 10249 10242 10236 10230 10222 10215 10207 10198 10189 10180 10172 10163 10155 10148 10141 10133 10124 10114 10104 10093 10083 10074 10063 10051 10041 10031 10021 10011 10002 9990 9978 9964 9953 9935 9915 9901 9890 9877 9863 9851 9836
10249 10241 10235 10229 10223 10216 10209 10200 10190 10181 10172 10163 10154 10146 10138 10130 10122 10112 10103 10094 10084 10074 10063 10054 10044 10033 10021 10011 10000 9989 9978 9966 9954 9942 9928 9911 9894 9879 9867 9855 9842 9828 9817
10239 10231 10224 10215 10209 10201 10192 10182 10173 10164 10154 10145 10136 10127 10119 10111 10102 10093 10083 10073 10063 10053 10042 10033 10024 10014 10002 9990 9979 9968 9957 9945 9932 9919 9906 9890 9875 9859 9848 9836 9823 9812 9798
10225 10217 10208 10200 10192 10183 10174 10166 10155 10144 10135 10126 10117 10109 10100 10092 10082 10073 10063 10053 10043 10033 10023 10012 10003 9993 9982 9970 9960 9948 9935 9922 9910 9896 9882 9869 9855 9841 9828 9815 9803 9791 9778